RH
59 27 10 10 5 5 5 6 8 12 17 21 24 38 100 49 33 45 54 42 94 100 88 100 100 100 100 100 100 100 100 100 100 100 100 100 100 100 100 100 100 100 100
58 41 30 17 7 6 5 5 6 10 15 20 24 26 58 29 36 56 67 78 67 100 100 100 100 100 100 100 100 100 100 100 100 100 100 100 100 100 100 100 100 100 100
42 57 39 23 21 12 6 5 6 9 15 22 30 30 28 100 72 100 100 74 96 98 100 100 100 100 100 100 100 100 100 100 100 100 100 100 100 100 100 100 100 100 100
59 65 47 30 36 29 11 13 7 9 13 31 48 42 78 100 100 100 100 88 100 100 100 100 100 100 100 100 100 100 100 100 100 100 100 100 100 100 100 100 100 100 100
53 73 87 59 93 75 43 20 8 10 16 31 55 92 100 100 100 100 100 100 100 100 100 100 100 100 100 100 100 100 100 100 100 100 100 100 100 100 100 100 100 100 100
55 78 94 63 80 68 69 49 13 14 26 50 44 100 100 100 100 100 100 100 100 100 100 100 100 100 100 100 100 100 100 100 100 100 100 100 100 100 100 100 100 100 100
72 58 100 99 81 100 100 86 28 22 46 30 63 100 100 100 100 100 100 100 100 100 100 100 100 100 100 100 100 100 100 100 100 100 100 100 100 100 100 100 100 100 100
70 70 75 100 100 95 100 100 97 50 40 52 65 100 100 100 100 100 100 100 100 100 100 100 100 100 100 100 100 100 100 100 100 100 100 100 100 100 100 100 100 100 100
63 80 76 98 100 100 70 98 100 99 100 75 65 68 100 100 100 100 100 100 100 100 100 100 100 100 100 100 100 100 100 100 100 100 100 100 100 100 100 100 92 81 98
98 68 75 77 88 100 97 99 86 90 70 84 81 92 70 50 100 100 100 100 100 100 100 100 100 100 100 100 100 100 100 100 100 100 96 100 100 100 100 100 100 100 100
97 92 82 77 94 94 100 83 100 100 84 47 58 78 78 73 100 100 100 100 100 100 100 100 100 100 100 100 100 100 100 100 100 100 100 100 90 87 87 96 100 100 99
100 96 92 82 78 97 98 100 94 80 100 100 88 64 52 58 96 100 100 100 100 100 100 100 100 100 100 100 100 100 100 100 100 100 100 100 98 95 100 99 100 100 88
100 100 100 100 83 77 85 99 100 100 95 100 100 99 97 90 80 100 100 100 100 100 100 100 100 100 100 100 100 100 100 100 100 100 100 100 98 95 83 87 100 100 100
100 100 100 100 99 93 79 66 82 100 100 100 100 100 99 95 88 77 97 100 100 100 100 100 100 100 100 100 100 100 100 100 98 100 100 100 100 100 100 96 94 82 74
100 97 90 96 100 98 97 84 72 67 83 98 100 100 100 100 100 100 100 100 100 100 100 100 100 100 100 100 100 100 100 100 100 100 100 100 99 100 100 100 85 76 70
100 89 90 92 88 91 100 100 99 88 81 76 77 89 100 100 100 100 96 95 99 100 100 100 100 100 100 100 100 100 100 100 100 100 100 100 100 88 95 100 100 100 100
99 98 96 89 82 72 71 81 96 100 89 78 77 74 72 78 95 100 100 100 100 94 90 100 100 100 100 100 100 100 100 100 100 100 100 100 100 100 100 100 100 100 100
100 98 96 100 99 92 89 82 75 72 74 81 78 74 79 82 81 76 81 89 89 80 79 88 95 100 100 100 100 100 100 100 100 100 100 100 100 100 100 100 93 92 98
100 100 100 100 96 95 95 84 78 72 68 63 62 65 63 58 59 61 63 65 68 70 82 82 72 66 64 74 90 92 96 94 100 100 100 95 100 100 100 100 100 100 100
100 100 100 100 98 84 79 78 72 68 62 62 64 59 53 49 46 44 44 46 48 50 54 57 54 57 61 60 56 59 69 73 80 82 78 79 89 98 87 84 67 66 90
76 77 88 85 79 74 73 75 72 70 68 64 61 60 57 55 52 50 46 45 43 41 40 41 43 45 46 47 45 40 36 40 47 51 62 65 72 77 70 63 59 65 64
86 92 88 82 78 75 78 77 74 72 70 67 64 61 58 54 50 48 44 38 34 34 34 34 35 34 35 37 38 38 34 31 30 34 40 49 53 57 48 45 43 42 44
92 93 95 91 82 72 78 81 82 82 82 78 72 65 57 44 32 27 25 24 22 20 20 18 17 17 16 16 17 19 23 28 29 30 31 28 25 26 29 29 29 39 40
98 99 92 91 92 93 88 78 75 69 57 46 38 31 26 22 18 16 15 14 13 13 12 12 12 12 11 10 9 9 9 10 11 13 15 19 24 29 29 28 28 26 25
98 95 98 97 93 84 76 65 60 44 33 23 19 18 17 16 16 15 14 13 11 10 9 8 8 7 7 7 7 7 8 8 8 8 8 8 9 10 12 14 15 16 15
98 99 97 88 83 74 60 40 27 20 18 19 18 16 14 11 9 8 8 6 6 6 5 5 5 5 5 5 4 4 4 4 4 4 4 4 4 5 7 8 9 10 10
Wind_Speed
41 39 24 24 34 42 53 71 78 85 86 86 84 69 62 79 80 79 80 88 88 90 89 88 85 81 80 78 75 75 75 72 71 68 66 65 64 63 62 61 61 61 63
32 25 25 18 23 37 52 59 69 79 81 84 82 82 80 70 76 67 73 77 84 90 87 88 88 85 83 80 78 77 76 75 74 72 73 69 70 71 70 68 67 66 65
45 25 14 15 16 27 37 49 66 75 79 78 78 78 69 59 63 58 70 72 73 85 87 86 85 87 85 83 82 79 79 78 76 76 76 74 74 75 73 71 70 70 70
50 37 15 11 6 16 29 37 54 68 76 73 74 71 57 59 57 54 56 57 65 72 82 88 85 85 87 87 84 82 82 81 79 79 79 78 79 78 77 76 76 75 74
50 40 28 11 6 11 17 32 47 61 72 72 76 66 66 65 68 64 66 56 57 59 71 79 85 83 85 85 87 85 82 80 83 84 83 82 82 82 80 81 81 79 79
48 40 26 12 12 3 3 17 40 54 68 70 71 73 68 66 66 68 60 62 56 60 58 71 72 75 81 87 87 84 85 84 82 83 84 85 85 84 84 82 84 82 79
47 40 26 17 6 9 6 13 36 58 71 76 74 84 79 75 70 78 71 65 70 65 66 61 68 76 75 80 86 83 82 82 81 82 85 86 86 88 88 87 87 85 82
33 39 28 17 17 16 11 19 29 51 60 68 80 90 85 75 78 79 78 73 72 69 74 69 70 71 73 79 78 82 83 83 84 85 86 85 85 87 89 90 90 90 89
30 28 30 19 11 17 20 26 31 52 68 73 77 88 92 92 85 83 78 77 73 75 80 77 77 74 78 83 80 85 85 83 81 83 87 89 88 90 92 93 94 95 88
29 27 23 25 15 13 17 19 36 52 62 73 79 82 90 86 92 87 80 80 79 79 82 81 81 78 78 80 82 84 85 85 90 94 91 91 95 94 96 97 97 98 100
28 27 24 23 20 18 20 21 24 34 47 63 75 82 85 90 94 83 80 83 83 84 90 88 86 83 83 83 85 86 89 90 92 93 95 100 101 100 101 101 99 104 104
31 30 30 26 23 20 21 26 30 34 39 52 63 67 76 78 99 93 86 89 91 90 93 92 91 93 92 92 89 93 94 98 95 97 98 97 102 104 106 108 108 109 109
35 36 34 34 32 29 26 25 31 40 45 48 60 66 75 89 95 105 98 95 94 95 95 98 99 96 95 100 89 99 97 97 100 105 105 105 106 110 108 108 109 114 114
39 41 42 39 37 37 37 36 36 37 44 55 61 70 75 80 82 90 104 111 105 105 101 107 110 106 104 99 99 95 102 103 107 107 108 103 107 109 112 115 114 116 119
44 47 46 45 45 43 44 46 47 47 46 49 59 75 80 84 86 95 96 100 113 121 122 115 117 117 116 112 111 107 107 108 109 112 114 117 114 114 113 114 117 117 122
53 52 50 50 50 51 52 54 58 59 60 60 63 65 73 83 95 93 96 99 104 110 111 133 128 128 126 127 122 122 118 117 117 119 120 123 126 127 124 122 119 119 118
58 58 58 58 58 58 60 60 63 66 67 67 70 73 76 81 87 94 98 109 115 112 115 120 130 131 135 135 136 133 132 132 131 131 131 129 132 133 132 131 124 123 122
58 59 61 62 64 66 64 65 67 70 74 77 78 79 81 85 89 93 96 103 109 116 122 125 131 137 140 144 143 146 143 144 143 141 142 139 140 144 141 140 140 134 133
59 62 65 69 72 73 76 77 77 78 81 84 87 89 91 92 96 100 104 107 110 115 120 131 137 141 147 154 154 158 157 157 157 155 153 154 155 155 154 153 152 149 149
65 70 73 76 77 76 72 73 75 76 80 84 87 91 93 95 98 101 104 110 115 120 127 132 135 142 146 151 156 162 165 163 165 167 169 166 165 166 165 167 166 162 158
56 56 59 62 65 70 72 74 78 80 81 82 83 85 87 90 94 98 102 106 110 114 119 125 133 141 144 146 149 156 159 167 171 171 179 177 176 177 176 175 174 172 172
57 61 65 70 73 72 74 78 81 84 86 88 89 91 94 95 97 99 102 103 106 110 114 118 123 128 133 140 148 153 154 153 155 162 171 183 188 186 183 179 182 184 184
67 72 73 76 79 79 80 83 85 87 89 91 93 95 98 100 100 100 102 104 107 109 112 113 116 121 126 130 134 136 140 146 153 156 159 159 156 160 166 167 167 180 185
71 76 79 83 85 84 87 88 90 91 93 94 96 98 99 99 100 101 101 101 103 103 104 106 107 110 114 119 122 125 129 134 137 140 143 148 154 159 162 161 161 161 161
81 83 87 88 90 91 94 94 95 95 96 96 96 96 95 95 95 95 96 95 97 97 97 97 97 100 103 107 109 112 114 117 120 122 126 130 134 139 144 148 151 153 152
85 88 90 92 93 97 98 98 96 95 94 93 94 94 93 93 91 88 88 85 85 87 85 83 84 87 88 92 95 96 97 100 102 104 106 111 115 119 124 128 132 135 138
Wind_Direction
329 317 293 266 237 229 222 218 218 218 218 218 220 214 226 227 228 231 232 231 231 233 233 232 236 237 238 240 242 245 246 247 250 251 253 254 255 256 257 261 264 267 270
335 317 308 301 242 224 220 218 215 218 215 213 217 218 219 224 227 237 237 236 232 230 234 235 235 238 240 240 242 244 247 249 250 253 255 257 258 260 260 262 263 265 269
1 342 319 294 246 228 222 217 212 211 210 208 210 216 214 216 216 216 238 241 239 234 230 236 237 239 241 243 244 245 248 250 252 254 256 257 259 260 263 264 265 264 266
360 358 359 333 240 226 214 215 212 207 206 203 206 211 201 209 213 222 237 239 239 239 234 233 238 241 243 244 246 247 248 251 253 254 257 257 260 262 264 265 267 267 267
3 358 1 63 71 201 214 208 205 205 201 198 201 192 195 202 207 220 225 229 231 237 237 237 236 237 240 243 245 246 248 250 252 254 256 257 259 260 262 265 266 267 268
1 3 360 359 45 85 157 211 197 195 194 196 198 191 194 198 205 215 218 223 228 231 236 237 237 241 240 241 242 245 248 250 251 253 253 255 256 259 260 261 264 266 267
353 6 3 340 49 81 138 166 180 188 193 202 189 196 197 203 212 211 215 223 226 228 235 236 236 236 237 239 241 244 246 247 250 254 255 255 256 256 259 259 261 261 263
352 354 7 344 311 137 165 171 182 191 199 199 197 201 202 210 212 214 219 221 225 224 233 239 240 237 239 238 239 241 244 247 249 250 251 254 256 257 257 257 258 259 261
338 347 351 355 291 276 230 202 189 190 198 202 205 207 212 217 218 219 221 218 219 225 231 234 240 243 240 239 240 239 239 242 245 246 249 249 251 255 258 258 259 258 256
319 328 335 337 330 275 257 226 222 203 206 207 209 213 215 221 219 218 225 225 225 227 231 235 239 240 241 243 242 240 241 244 244 244 243 246 248 249 250 251 253 256 257
305 307 313 315 314 303 268 250 231 230 231 223 215 216 218 220 217 221 227 226 227 231 231 235 236 236 239 241 243 243 244 246 248 250 249 249 249 250 250 251 252 253 253
293 295 296 294 291 283 280 258 251 241 238 239 233 232 229 228 224 225 229 226 228 230 231 233 236 239 239 243 245 246 247 245 249 250 251 254 255 253 254 252 252 254 256
285 284 282 283 281 274 269 265 263 250 243 240 237 232 228 229 228 228 230 229 230 231 234 236 237 240 243 244 245 245 246 248 251 252 252 253 256 255 255 256 256 254 255
273 276 276 273 273 271 268 264 257 252 250 243 237 240 240 237 237 235 235 233 233 235 237 238 240 239 242 242 243 246 249 251 252 251 249 250 254 255 257 258 258 258 258
273 270 271 272 271 266 265 265 264 255 250 247 244 240 241 245 245 244 239 239 239 239 240 242 241 241 243 245 244 245 246 247 248 251 253 252 249 249 250 254 258 259 259
269 273 274 273 268 268 266 263 262 261 259 256 250 248 246 247 246 247 247 247 246 247 247 243 242 244 245 245 247 247 247 247 248 250 252 251 252 251 253 256 257 259 261
270 271 273 274 275 275 268 264 261 260 260 261 259 258 254 249 247 246 248 250 249 251 249 247 246 249 249 247 249 249 248 249 250 248 250 251 251 252 254 256 255 256 258
276 275 275 276 277 279 279 275 271 268 267 266 264 261 259 257 256 253 252 250 249 249 248 247 248 249 251 250 250 250 250 249 250 250 249 249 251 254 254 253 256 257 256
271 272 273 274 276 278 278 276 273 272 269 267 264 264 263 259 256 253 252 252 251 250 251 250 250 249 249 250 251 251 252 252 251 251 251 251 252 254 254 255 255 256 256
276 273 274 276 277 277 277 275 273 274 275 272 270 269 268 266 265 263 259 255 253 252 251 251 251 251 251 252 251 251 250 251 252 251 251 251 251 254 254 255 256 256 258
283 283 286 289 286 283 281 281 280 281 281 280 276 274 272 271 269 267 264 263 261 260 258 256 255 255 254 254 255 254 254 253 252 253 252 253 254 254 254 256 257 257 258
295 297 293 293 293 290 289 287 286 287 286 285 284 281 279 277 275 273 270 268 266 263 262 261 260 259 257 256 257 258 259 258 257 257 257 256 256 257 258 259 259 258 259
299 300 300 299 297 296 294 293 292 290 289 287 285 283 280 278 276 275 273 272 270 268 267 266 264 262 261 261 261 260 259 259 260 260 260 261 260 258 260 261 262 262 261
302 302 301 302 300 297 295 294 294 293 290 288 285 283 282 282 280 278 277 275 274 272 270 269 267 266 265 264 263 262 261 261 261 260 260 260 260 261 262 263 263 264 263
304 302 303 302 301 299 299 298 297 294 291 290 289 288 286 284 283 282 280 278 276 274 273 271 270 269 268 266 265 264 264 263 262 262 261 261 261 260 260 261 262 264 265
305 304 303 302 301 301 300 299 297 295 294 293 291 290 289 287 286 284 282 280 278 277 274 272 271 270 268 268 267 266 266 265 265 264 263 262 261 262 262 262 262 262 263